This is the latest recevied weather packets stored in our database for station/object K0BL. If no packets are shown the sender has not sent any weather packets the latest 10 day(s).
| Time | Temp. | Humidity | Pressure | Rain* | Wind** | Luminosity | Snow |
|---|---|---|---|---|---|---|---|
| 1777414816 | 16.67° C | 51% | 1012.6 hPa | 0 mm | - | 205 W/m² | - |
| 1777413617 | 16.67° C | 52% | 1012.5 hPa | 0 mm | - | 216 W/m² | - |
| 1777413014 | 17.22° C | 51% | 1012.7 hPa | 0 mm | - | 226 W/m² | - |
| 1777411508 | 17.22° C | 52% | 1012.5 hPa | 0 mm | - | 230 W/m² | - |
| 1777410009 | 18.33° C | 49% | 1011.9 hPa | 0 mm | - | 612 W/m² | - |
| 1777409708 | 17.78° C | 51% | 1012.1 hPa | 0 mm | - | 692 W/m² | - |
| 1777409106 | 17.22° C | 51% | 1012.3 hPa | 0 mm | - | 658 W/m² | - |
| 1777407303 | 18.33° C | 50% | 1012.4 hPa | 0 mm | - | 751 W/m² | - |
| 1777404299 | 17.22° C | 52% | 1013 hPa | 0 mm | - | 668 W/m² | - |
| 1777398284 | 15° C | 57% | 1014.9 hPa | 0 mm | - | 940 W/m² | - |
| 1777394973 | 15° C | 59% | 1015.4 hPa | 0 mm | - | 676 W/m² | - |
| 1777394073 | 15° C | 57% | 1015.6 hPa | 0 mm | - | 694 W/m² | - |
| 1777389558 | 12.78° C | 66% | 1015.9 hPa | 0 mm | - | 682 W/m² | - |
| 1777388959 | 12.22° C | 67% | 1015.7 hPa | 0 mm | - | 595 W/m² | - |
| 1777387152 | 11.67° C | 69% | 1014.7 hPa | 0 mm | - | 559 W/m² | - |
| 1777386850 | 11.67° C | 68% | 1014.4 hPa | 0 mm | - | 528 W/m² | - |
| 1777386549 | 11.67° C | 69% | 1014.4 hPa | 0 mm | - | 340 W/m² | - |
| 1777385348 | 10.56° C | 71% | 1014.1 hPa | 0 mm | - | 462 W/m² | - |
| 1777384451 | 10.56° C | 72% | 1013.6 hPa | 0 mm | - | 299 W/m² | - |
| 1777379638 | 9.44° C | 80% | 1012.9 hPa | 0 mm | - | 81 W/m² | - |
| 1777377538 | 9.44° C | 82% | 1012.8 hPa | 0 mm | - | 21 W/m² | - |
| 1777376036 | 9.44° C | 81% | 1012.6 hPa | 0 mm | - | 6 W/m² | - |
| 1777374534 | 9.44° C | 81% | 1012.1 hPa | 0 mm | - | 0 W/m² | - |
| 1777372733 | 9.44° C | 81% | 1011.7 hPa | 0 mm | - | 0 W/m² | - |
| 1777371832 | 10° C | 81% | 1011.7 hPa | 0 mm | - | 0 W/m² | - |
* Rain latest hour (hover to see other rain measurements)
** Current wind speed in m/s (hover to see current wind gust speed)